Home > Time Zones > World Clock > Weather > Peru > Cuzco > Past weeks

Flag for Peru Weather past 2 weeks in Cuzco, Cusco, Peru

Now
66 °F

Scattered clouds.


Feels Like: 66 °F
Forecast: 46 / 63 °F
Wind: 5 mph from North

Location: Cuzco Airport

Current Time: Oct 24, 2014 at 12:09:51 PM

Latest Report: Oct 24, 2014 at 11:00 AM


Visibility: N/A

Pressure: 30.45 "Hg

Humidity: 40%

Dew point: 41 °F

Location of CuzcoLocation

Historic Weather in Cuzco — Graph

°F

Cuzco temperature yesterday

Maximum temperature yesterday: 70 °F (at 1:00 PM)
Minimum temperature yesterday: 48 °F (at 12:00 AM)
Average temperature yesterday: 56 °F

Past Weeks' High & Low Weather Summary

 TemperatureHumidityPressure
High73 °F (Oct 10, 1:00 PM)87% (Oct 22, 12:00 AM)30.66 "Hg (Oct 22, 12:00 AM)
Low39 °F (Oct 15, 5:00 AM)18% (Oct 16, 12:00 PM)30.30 "Hg (Oct 9, 3:00 PM)
Average56 °F53%30.49 "Hg
* Reported Oct 9 11:00 AM — Oct 24 11:00 AM, Cuzco, Weather by CustomWeather, © 2014

Note: Actual official high and low records may vary slightly from our data, if they occured in-between our weather recording intervals... More about our weather records

Advertising

Cuzco weather history for previous 24 hours

 ConditionsComfort  
Time TempWeatherWind HumidityBarometerVisibility
11:00 AM
Oct 24
66 °FScattered clouds.5 mph40%30.45 "HgN/A
10:00 AM63 °FScattered clouds.2 mph52%30.51 "HgN/A
9:00 AM59 °FPartly sunny.No wind55%30.54 "HgN/A
8:00 AM55 °FBroken clouds.No wind67%30.54 "HgN/A
7:00 AM52 °FBroken clouds.No wind77%30.51 "HgN/A
6:00 AM48 °FBroken clouds.5 mph87%30.51 "HgN/A
5:00 AM48 °FPartly cloudy.3 mph82%30.48 "HgN/A
4:00 AM48 °FPartly cloudy.3 mph87%30.48 "HgN/A
3:00 AM48 °FPartly cloudy.5 mph82%30.45 "HgN/A
2:00 AM48 °FPartly cloudy.No wind87%30.48 "HgN/A
1:00 AM48 °FPartly cloudy.No wind87%30.48 "HgN/A
12:00 AM54 °FPartly cloudy.No wind72%30.48 "HgN/A
11:00 PM
Oct 23
54 °FPartly cloudy.No wind72%30.48 "HgN/A
10:00 PM54 °FPartly cloudy.No wind67%30.51 "HgN/A
9:00 PM54 °FPartly cloudy.2 mph72%30.48 "HgN/A
8:00 PM55 °FPassing clouds.2 mph63%30.42 "HgN/A
7:00 PM55 °FPartly cloudy.2 mph63%30.42 "HgN/A
6:00 PM59 °FPassing clouds.No wind51%30.39 "HgN/A
5:00 PM61 °FPartly sunny.3 mph48%30.39 "HgN/A
4:00 PM61 °FBroken clouds.6 mph48%30.36 "HgN/A
3:00 PM57 °FScattered showers. Broken clouds.17 mph59%30.36 "HgN/A
2:00 PM70 °FScattered clouds.12 mph31%30.33 "HgN/A
1:00 PM70 °FScattered clouds.7 mph29%30.39 "HgN/A
12:00 PM66 °FScattered clouds.5 mph32%30.45 "HgN/A
Weather by CustomWeather, © 2014

See weather overviewHow to use our weather pages